星链-32758 (STARLINK-32758)

导读

STARLINK-32758是美国于2025年1月21日发射的星链卫星,星链计划是SpaceX推进的低轨卫星互联网项目,旨在为全球提供高速低延迟网络服务。这类低轨卫星补充了全球网络覆盖盲区,推动卫星互联网技术发展,也引发了天文观测、轨道空间利用等领域的讨论。

Basic Information
目录编号:
62744
目录名称:
STARLINK-32758
国际标识:
2025-014K
轨道中心:
EARTH
卫星名称:
星链-32758
卫星全名:
星链-32758 (STARLINK-32758)
卫星状态:
在轨 (已飞行591 天)
发射日期:
2025-01-21 UTC
国别 :
美国 (US)
星等 :
--
Orbit Information
数据来源 国际轨道数据 AOE轨道数据
星历时间 2026-09-04T13:32:17+0800
15小时前
查看轨道信息
2026-08-29T07:00:00+0800
6天前
查看轨道信息
半长轴 6861.159km 6861.098km
偏心率 0.0001501 0.0001195
轨道倾角 43.001° 43.000°
近地点辐角 276.408° 276.592°
升交点赤经 229.487° 264.913°
平近点角 83.660° 109.312°
近地点 481.992km 482.141km
远地点 484.052km 483.781km
周期 94.266分钟 94.265分钟
每日圈数 15.275893 15.276096
Detailed Information
固有亮度:
5
最大亮度:
2.5
卫星平台:
Starlink V1.0
覆盖范围:
全球
运营商:
太空探索技术公司
运营商所在国:
美国
制造商(研发单位):
太空探索技术公司
制造商所在国:
美国
使用方式:
暂无
Satellite Introduction
Starlink 计划是 SpaceX 推出的全球卫星互联网项目,通过发射低轨道卫星,为全球尤其是偏远地区提供高速、低延迟的互联网服务。自 2019 年起,Starlink 已部署数千颗卫星,旨在缩小全球数字鸿沟,推动互联网普及。该项目还为军事、航空等行业提供通信支持,带来广泛经济效益。
2D Orbit Map
3D Orbit Map
Orbit Altitude Analysis Chart
Orbit Inclination Analysis Chart
Orbit Comprehensive Analysis Chart
View Comprehensive Chart
Conjunction Data List
Event ID Objects TCA Miss Dist (km) Collision Risk Probability Collision Risk Index (CRI) Action
CDM_260907-064305-864006-274421
2026-09-07T
06:43:24+0000
1.426 km
极远距离
5.160995E-6 低风险 0.49
CDM_260907-050905-864006-274421
2026-09-07T
05:09:15+0000
2.855 km
极远距离
9.948734E-7 极低风险 0.35
CDM_260907-065205-923206-274421
2026-09-07T
06:52:33+0000
2.992 km
极远距离
3.940708E-7 极低风险 0.27